Location: Newark
(51.2625°N, 13.3939°E)
Time: 15:19:56
(UTC+00:00)

deb Explorer IX - Pass Details

Date: 22 November 2019
Orbit: 545 x 1105 km, 38.8° (Epoch: 05 December)

Event Time Altitude Azimuth Distance (km) Brightness Sun altitude
Rises 02:53:43 0° 258° (WSW) 3,549 - -33.9°
Reaches altitude 10° 02:57:20 10° 240° (WSW) 2,484 - -33.4°
Maximum altitude 03:00:57 17° 201° (SSW) 1,912 - -32.8°
Drops below altitude 10° 03:04:17 10° 162° (SSE) 2,234 - -32.3°
Exits shadow 03:04:41 - 158° (SSE) 2,324 ? -32.2°
Sets 03:07:18 0° 142° (SE) 3,043 ? -31.8°
